ASTRA 1M

Last updated on Tue Sep 16 2025 00:02:46 GMT+0000 (Coordinated Universal Time)

1 33436U 08057A 25258.58838931 .00000103 00000+0 00000+0 0 9998 2 33436 0.0046 248.8782 0005484 279.2040 57.7254 1.00270006 42984
UTC large
Height (km)
Speed (km/s)
/
Latitude / Longitude
Inclination (degrees)
Orbital Period (minutes)
Azimuth
Elevation
Range (km)
Doppler Factor

Next 0 passes for location: London (51.5072 / 0.1276)

Sorry there are no passes over London.